Bar Harbor, ME

11:33 AM EST on December 09, 2019 (GMT -0500)
Hancock County-Bar Harbor

Weather History for KBHB - August, 2019

Change the Weather History Date:

Thursday, August 15, 2019

  Actual Average Record
Temperature  
Mean Temperature 65 °F -  
Max Temperature 77 °F 78 °F 91 °F (1978)
Min Temperature 53 °F 55 °F 44 °F (1961)
Growing Degree Days 15 (Base 50)    
Moisture  
Dew Point 56 °F    
Average Humidity 75    
Maximum Humidity 100    
Minimum Humidity 50    
Precipitation  
Precipitation 0.00 in - - ()
Sea Level Pressure  
Sea Level Pressure 30.04 in    
Wind  
Wind Speed 2 mph (SSW)    
Max Wind Speed 12 mph    
Max Gust Speed -    
Visibility 10 miles    
Events      
Averages and records for this station are not official NWS values.
T = Trace of Precipitation, MM = Missing Value Source: NWS Daily Summary

Daily Weather History Graph

Daily Weather History Graph

Search for Another Location

Airport or City:

Astronomy

Aug. 15, 2019 Rise Set
Actual Time 5:36 AM EDT 7:39 PM EDT
Civil Twilight 5:04 AM EDT 8:10 PM EDT
Nautical Twilight 4:25 AM EDT 8:49 PM EDT
Astronomical Twilight 3:42 AM EDT 9:31 PM EDT
Moon 8:06 PM EDT (8/15) 5:24 AM EDT (8/15)
Length of Visible Light 15h 06m
Length of Day
14h 02m
Full, 100% of the Moon is Illuminated
Aug 15
Full
Aug 23
Last Quarter
Aug 30
New
Sep 5
First Quarter
Sep 14
Full

Hourly Weather History & Observations

Time (EDT) Temp. Dew Point Humidity Pressure Visibility Wind Dir Wind Speed Gust Speed Precip Events Conditions
12:56 AM 55.9 °F 54.0 °F 93% 29.97 in 10.0 mi Calm Calm - N/A   Mostly Cloudy
1:56 AM 54.0 °F 53.1 °F 97% 29.98 in 10.0 mi Calm Calm - N/A   Clear
2:56 AM 57.0 °F 55.0 °F 93% 29.98 in 10.0 mi Calm Calm - N/A   Mostly Cloudy
3:56 AM 55.0 °F 54.0 °F 96% 29.99 in 9.0 mi Calm Calm - N/A   Clear
4:56 AM 53.1 °F 53.1 °F 100% 30.00 in 10.0 mi Calm Calm - N/A   Clear
5:56 AM 53.1 °F 52.0 °F 96% 30.02 in 9.0 mi Calm Calm - N/A   Clear
6:56 AM 57.0 °F 55.9 °F 96% 30.03 in 10.0 mi Calm Calm - N/A   Clear
7:56 AM 63.0 °F 59.0 °F 87% 30.04 in 10.0 mi Calm Calm - N/A   Clear
8:56 AM 66.9 °F 57.0 °F 70% 30.04 in 10.0 mi NE 3.5 mph - N/A   Mostly Cloudy
9:56 AM 70.0 °F 55.9 °F 61% 30.05 in 10.0 mi North 5.8 mph - N/A   Partly Cloudy
10:56 AM 73.0 °F 55.9 °F 55% 30.06 in 10.0 mi North 5.8 mph - N/A   Mostly Cloudy
11:56 AM 73.9 °F 55.9 °F 53% 30.06 in 10.0 mi East 3.5 mph - N/A   Scattered Clouds
12:56 PM 75.0 °F 57.0 °F 53% 30.06 in 10.0 mi East 4.6 mph - N/A   Overcast
1:56 PM 77.0 °F 57.0 °F 50% 30.04 in 10.0 mi Calm Calm - N/A   Mostly Cloudy
2:56 PM 75.9 °F 57.0 °F 52% 30.04 in 10.0 mi South 11.5 mph - N/A   Scattered Clouds
3:56 PM 75.9 °F 59.0 °F 56% 30.04 in 10.0 mi SSW 10.4 mph - N/A   Clear
4:56 PM 75.0 °F 57.9 °F 55% 30.04 in 10.0 mi SSW 10.4 mph - N/A   Mostly Cloudy
5:56 PM 73.0 °F 55.9 °F 55% 30.05 in 10.0 mi SW 10.4 mph - N/A   Clear
6:56 PM 69.1 °F 57.9 °F 68% 30.05 in 10.0 mi SSW 5.8 mph - N/A   Clear
7:56 PM 66.9 °F 57.0 °F 70% 30.06 in 10.0 mi WSW 4.6 mph - N/A   Clear
8:56 PM 64.0 °F 55.9 °F 75% 30.09 in 10.0 mi Calm Calm - N/A   Scattered Clouds
9:56 PM 64.0 °F 57.0 °F 78% 30.09 in 10.0 mi SSW 4.6 mph - N/A   Overcast
10:56 PM 61.0 °F 57.9 °F 90% 30.09 in 10.0 mi Calm Calm - N/A   Overcast
11:56 PM 59.0 °F 55.9 °F 90% 30.09 in 10.0 mi Calm Calm - N/A   Clear